GORIZONT 30 [-]

Last updated on Nov. 25, 2020, 6:15 a.m. UTC

1 23108U 94030A   20329.34193435 -.00000063  00000-0  00000-0 0  9998
2 23108  14.7856   4.2394 0001641 310.9956 226.9544  1.00288479 97090
UTC
Height (km)
Latitude
Longitude
Inclination
Orbital Period
UTC large
Height (km)
Speed (km/s)
/
Latitude / Longitude
Inclination (degrees)
Orbital Period (minutes)
Azimuth
Elevation
Range (km)
Doppler Factor
iOS Compass Heading
iOS Angle

Next 30 passes for location: Hong Kong

Rise time Rise Azimuth (degrees) Set time Set Azimuth (degrees) Duration Max altitude (degrees)

No matching passes for this satellites